Location: Cliffside
(35.2651°N, 101.9327°W)
Time: 00:16:17
(UTC+00:00)

Daily predictions for brighter satellites

Satellite Brightness Start Highest point End
(mag) Time Altitude Azimuth Time Altitude Azimuth Time Altitude Azimuth
Cosmos 1898 Rocket 3.5 01:03:34 10° S 01:08:43 75° ESE 01:13:53 10° NNE
Cosmos 1975 3.1 01:05:27 10° SSE 01:09:23 48° E 01:13:19 10° NNE
CZ-4 R/B 1.7 01:07:45 10° SSE 01:11:51 52° ENE 01:15:57 10° N
Cosmos 1782 Rocket 3.9 01:09:48 10° SSE 01:13:58 44° E 01:18:10 10° NNE
Cosmos 1544 3.1 01:10:43 10° S 01:14:23 87° W 01:18:03 10° N
Cosmos 1908 Rocket 3.6 01:11:45 10° S 01:16:05 87° W 01:20:28 10° N
CSL-04 Rocket 4.2 01:12:22 10° SE 01:17:15 37° ENE 01:22:14 10° N
CZ-2C R/B 1.0 01:14:57 10° WSW 01:18:35 65° SSE 01:21:59 10° E
Cosmos 1603 4.2 01:14:10 10° N 01:19:27 39° ENE 01:24:40 10° SE
Cosmos 858 Rocket 4.5 01:16:27 10° S 01:21:38 70° ESE 01:26:50 10° NNE
NOSS 2-2 (C) 3.0 01:23:09 10° SSW 01:26:41 62° ESE 01:30:14 10° NE
Cosmos 807 4.3 01:24:50 10° S 01:27:41 49° E 01:30:54 10° NNE
Cosmos 1842 3.4 01:27:17 10° N 01:31:04 50° E 01:34:50 10° SSE
BREEZE-M DEB (TANK) 4.4 01:35:03 10° NNW 01:37:48 22° NE 01:42:24 12° E
Cosmos 1937 Rocket 3.6 01:32:40 10° SSW 01:37:57 81° WNW 01:43:11 10° NNE
Cosmos 2112 Rocket 3.9 01:35:23 10° NNW 01:40:37 81° ENE 01:45:51 10° SSE
Cosmos 1975 Rocket 3.1 01:39:23 10° N 01:43:36 51° E 01:47:48 10° SSE
Cosmos 2084 Rocket 4.0 01:39:23 10° NNW 01:43:38 42° NE 01:46:48 17° ESE
Cosmos 1680 Rocket 3.6 01:39:07 10° NNW 01:44:21 79° WSW 01:49:35 10° SSE
MOS 1 Rocket 3.1 01:40:20 10° NNE 01:44:41 58° E 01:48:53 10° S
Cosmos 1707 3.8 01:41:48 10° NNE 01:44:59 24° ENE 01:46:32 19° ESE
ISS -2.8 01:46:09 10° WSW 01:49:25 48° NW 01:52:42 10° NE
Sich 1 Rocket 3.5 01:48:55 10° S 01:53:21 75° E 01:57:52 10° N
USA 234 3.4 01:48:28 10° NE 01:54:50 53° SE 02:01:11 10° SSW
Cosmos 2034 Rocket 4.4 01:52:03 10° SSE 01:57:55 40° E 02:03:46 10° NNE
H-2A R/B 1.8 01:55:07 10° SSE 02:00:01 77° ENE 02:05:02 10° N
Cosmos 1437 2.8 01:58:29 10° NNW 02:01:28 70° W 02:04:25 10° S
ARGOS 3.1 01:59:26 10° SSE 02:04:43 64° ENE 02:10:01 10° N
Cosmos 1174 4.3 02:01:12 10° SSW 02:05:35 62° ESE 02:11:12 10° NNE
IRIS 4.0 02:03:50 10° WSW 02:07:30 66° SSE 02:07:55 55° ESE
SL-08 RB Rocket 4.0 02:05:17 23° SE 02:07:48 46° ENE 02:12:10 10° N
USA 102 4.4 02:07:51 39° ESE 02:09:38 62° ENE 02:15:23 10° NNW
Okean 2 Rocket 3.0 02:08:32 10° S 02:13:02 77° E 02:17:32 10° N
CZ-2C R/B 2.7 02:08:42 10° NNE 02:14:10 57° E 02:19:40 10° S
HJ-1C 4.2 02:11:05 10° S 02:14:17 50° W 02:17:29 10° NNW
Cosmos 1844 3.9 02:12:42 10° S 02:18:06 44° ESE 02:23:27 10° NE
BREEZE-M DEB (TANK) 3.9 02:18:28 10° NNW 02:19:17 17° N 02:19:17 17° N
Cosmos 2263 Rocket 4.4 02:17:46 10° WSW 02:22:18 25° WNW 02:26:53 10° N
Cosmos 1300 Rocket 3.6 02:20:25 10° S 02:24:47 79° W 02:29:13 10° N
CZ-2C R/B 4.2 02:20:22 10° S 02:25:13 44° W 02:30:21 10° NNW
USA 186 2.6 02:26:23 39° N 02:26:23 39° N 02:28:34 10° N
DELTA 2 R/B (1) 3.5 02:20:08 10° WNW 02:25:42 89° SSW 02:27:38 43° ESE
ATLAS 2AS CENTAUR R/B 3.5 02:21:07 10° S 02:27:53 33° ESE 02:34:45 10° NE
Cosmos 1844 Rocket 2.5 02:23:34 10° SSW 02:29:05 71° ESE 02:34:39 10° NNE
Ariane Rocket 2.9 02:30:49 39° SE 02:32:39 70° ENE 02:37:41 10° N
GOES 2 Rocket 4.2 02:29:52 10° SW 02:32:56 27° S 02:32:56 27° S
Cosmos 2285 Rocket 4.0 02:30:18 10° S 02:36:23 55° ESE 02:42:32 10° NNE
ATLAS 5 CENTAUR R/B 3.6 02:34:19 10° NW 02:38:25 67° SW 02:53:49 10° SSE
IRS-1A Rocket 4.3 02:38:16 31° SSE 02:41:19 83° ENE 02:47:13 10° NNW
Cosmos 2298 Rocket 4.4 02:37:54 10° SSW 02:43:11 65° WNW 02:48:29 10° N
Cosmos 1943 4.2 02:38:21 10° NW 02:43:41 44° WSW 02:48:36 12° S
Meteor 1-15 Rocket 4.0 02:39:24 10° S 02:44:58 76° E 02:50:38 10° NNE
SPOT 3 Rocket 4.4 02:46:18 34° NE 02:46:18 34° NE 02:49:55 10° N
CENTAUR R/B 4.0 02:38:14 10° NNW 02:45:29 33° NE 02:47:17 30° ENE
Cosmos 1536 Rocket 3.6 02:43:15 10° N 02:47:10 66° NNE 02:47:10 66° NNE
MetOp-A 4.0 02:49:17 63° SE 02:50:08 79° ENE 02:55:30 10° N
Cosmos 2151 Rocket 4.4 02:50:04 10° SSW 02:54:21 49° W 02:58:42 10° N
USA 238 DEB 4.2 02:47:31 10° NNW 02:54:31 47° NE 02:55:26 45° ENE
USA 238 4.2 02:47:38 10° NNW 02:54:37 47° NE 02:55:31 45° ENE
CZ-2C R/B 2.8 02:54:41 10° W 02:56:26 27° W 02:56:26 27° W
Exosat Rocket 3.7 02:52:59 10° SSW 02:59:15 81° WNW 03:04:21 10° NNE
Cosmos 1092 Rocket 4.1 02:53:26 10° N 02:58:55 55° ENE 02:58:55 55° ENE
Cosmos 1025 Rocket 3.7 02:56:03 10° NNW 03:00:18 52° W 03:00:46 49° WSW
Cosmos 1867 3.6 02:56:11 10° NNW 03:01:38 74° WSW 03:02:04 70° SSW
Meteor 2-13 Rocket 4.4 02:59:41 10° N 03:05:20 64° NE 03:05:20 64° NE
Milstar 3 Cent rocket 3.4 03:02:23 10° SW 03:06:06 28° SSW 03:06:06 28° SSW
NOSS 3-2 (A) 4.0 03:15:02 10° NNW 03:22:53 77° ENE 03:23:35 72° E
Cosmos 1125 Rocket 4.5 03:18:06 10° SW 03:23:09 45° WNW 03:28:16 10° N
Resurs 01 Rocket 3.9 03:27:09 19° N 03:27:09 19° N 03:28:23 10° N
USA 234 4.3 03:31:38 10° NNE 03:37:41 42° NW 03:43:43 10° WSW
NOSS 3-2 (C) 4.2 03:49:22 10° NNW 03:55:59 67° N 03:55:59 67° N
ATLAS 2AS CENTAUR R/B 3.8 04:10:55 10° SW 04:20:13 46° NNW 04:26:19 10° NNE
CENTAUR R/B 3.9 04:28:27 10° NW 04:34:28 49° WNW 04:34:28 49° WNW
ATLAS 3B R/B 4.5 04:36:17 10° NNW 04:39:00 25° N 04:39:00 25° N
Cosmos 1980 Rocket 3.8 09:22:31 31° ENE 09:22:31 31° ENE 09:25:54 10° NE
Lacrosse 5 3.7 09:48:47 24° N 09:48:47 24° N 09:51:05 10° NNE
BREEZE-M DEB (TANK) 3.9 09:50:54 85° SW 09:51:08 89° SE 10:09:09 10° ENE
USA 267 4.1 09:46:15 10° NNE 09:51:38 36° NNW 09:51:38 36° NNW
Cosmos 1821 Rocket 4.5 09:50:14 10° N 09:54:45 50° N 09:54:45 50° N
ADEOS II 4.3 10:02:13 10° NNW 10:03:06 14° NNW 10:03:06 14° NNW
X-37B 4.0 10:10:31 10° NNE 10:10:31 10° NNE 10:10:34 10° NNE
Cosmos 1934 Rocket 4.1 10:04:58 10° N 10:11:01 69° E 10:17:03 10° SSE
Cosmos 2278 4.1 10:15:57 50° NNW 10:15:57 50° NNW 10:20:32 10° NNE
IDEFIX/ARIANE 42P 3.3 10:14:01 10° N 10:17:40 42° NNW 10:17:40 42° NNW
USA 234 3.8 10:17:18 10° ESE 10:23:39 57° NE 10:30:02 10° NW
MSX 3.7 10:18:33 10° N 10:24:20 78° WNW 10:24:51 72° SW
ARIANE 5 R/B 4.0 10:21:09 10° N 10:23:29 24° NNW 10:23:29 24° NNW
ERS-2 4.3 10:26:48 10° SE 10:29:53 26° ENE 10:32:59 10° NNE
Cosmos 1605 Rocket 4.3 10:28:04 10° N 10:34:26 68° E 10:40:47 10° SSE
Cosmos 1535 Rocket 4.4 10:28:58 10° N 10:35:22 79° W 10:41:44 10° S
SJ 16-02 3.1 10:34:17 10° N 10:38:14 32° ENE 10:42:10 10° SE
H-2A R/B 2.2 10:34:20 10° SSE 10:38:36 72° ENE 10:43:01 10° N
PSLV R/B 3.6 10:37:04 10° NNE 10:41:16 74° ESE 10:42:13 51° S
Cosmos 1763 Rocket 4.2 10:38:57 17° S 10:42:57 54° ESE 10:48:08 10° NNE
Cosmos 1812 2.6 10:47:59 79° NNW 10:47:59 79° NNW 10:51:40 10° N
ERBS 3.2 10:54:40 38° N 10:54:40 38° N 10:57:12 10° NNE
Cosmos 2360 Rocket 4.1 10:49:52 10° SSE 10:54:40 29° ESE 10:59:29 10° NE
SL-4 R/B 2.5 10:55:28 40° SSW 10:56:58 68° SE 11:01:40 10° NE
CZ-4B R/B 3.6 10:55:41 10° SE 10:58:19 26° ENE 11:01:01 10° NNE
CZ-2C R/B 2.4 10:53:23 10° N 10:58:32 78° WNW 11:02:26 18° SSW
Cosmos 1500 3.0 10:54:50 10° N 10:58:41 81° W 11:02:28 10° S
Cosmos 1727 Rocket 4.0 10:55:40 10° S 11:02:01 89° W 11:08:23 10° N
Landsat 5 3.7 10:59:41 10° S 11:04:05 54° W 11:08:31 10° NNW
Cosmos 1666 3.8 11:00:52 10° N 11:04:33 45° E 11:08:10 10° SSE
Cosmos 1980 Rocket 3.3 11:04:19 24° WNW 11:04:43 25° WNW 11:09:18 10° N
PAYLOAD A 3.8 11:00:21 10° N 11:04:56 55° WNW 11:06:59 30° SW
DEBRIS 4.4 11:04:10 15° NNW 11:06:06 33° NE 11:11:33 10° ESE
Cosmos 468 Rocket 3.9 11:04:21 20° SSW 11:08:02 75° WNW 11:13:20 10° NNE
Cosmos 2322 Rocket 2.2 11:04:27 10° SSW 11:10:01 82° ESE 11:15:44 10° NNE
Cosmos 44 Rocket 4.4 11:08:01 10° S 11:12:22 41° ESE 11:16:51 10° NE
Meteor 1-10 Rocket 4.3 11:07:58 15° SSW 11:12:39 57° W 11:18:24 10° N
FENGYUN 3A 4.2 11:09:31 10° NNE 11:14:51 59° E 11:20:10 10° S
Cosmos 540 Rocket 4.2 11:10:26 10° S 11:15:25 53° ESE 11:20:27 10° NNE
SL-19 R/B 4.4 11:11:13 10° NNE 11:15:54 79° WNW 11:19:47 11° SSW
SL-16 R/B 2.1 11:13:21 16° SSW 11:17:55 69° WNW 11:23:36 10° NNE
Cosmos 2263 Rocket 2.2 11:12:54 10° NNW 11:18:35 86° ENE 11:24:16 10° SSE
SAR-Lupe-4 4.2 11:22:02 10° SSE 11:25:32 58° ENE 11:29:04 10° N
deb Chang Zheng 4 3.4 11:23:13 10° N 11:27:30 72° WNW 11:31:44 10° SSW
CZ-4B R/B 4.5 11:24:28 10° NNE 11:27:46 32° E 11:31:00 10° SSE
CZ-4B R/B 4.4 11:23:55 10° NNE 11:28:15 70° ESE 11:32:41 10° S
Cosmos 1459 Rocket 4.4 11:24:07 10° N 11:30:10 67° E 11:36:09 10° SSE
Lacrosse 5 4.2 11:30:22 10° NNW 11:30:31 10° NNW 11:30:41 10° NNW
Cosmos 2227 4.1 11:25:11 10° NNW 11:30:47 68° WSW 11:36:20 10° S
Cosmos 1707 Rocket 3.7 11:27:59 10° SSW 11:32:10 50° W 11:36:23 10° N
Cosmos 921 Rocket 4.4 11:32:00 18° WNW 11:32:25 19° WNW 11:35:23 10° NNW
Centaur D-1AR AC-48 4.3 11:30:30 10° SSW 11:34:26 22° SE 11:43:55 10° E
SAR-Lupe-1 4.1 11:34:16 10° SSE 11:37:49 83° ENE 11:41:24 10° N
Intercosmos 25 4.2 11:34:23 10° S 11:39:32 61° E 11:43:06 10° NNE
Cosmos 1898 Rocket 3.5 11:34:40 10° NNW 11:39:56 88° WSW 11:45:14 10° SSE
Cosmos 1689 Rocket 3.6 11:38:24 10° SE 11:41:10 39° ENE 11:43:58 10° N
Cosmos 2208 Rocket 4.1 11:38:08 10° SSW 11:43:25 81° ESE 11:48:38 10° NNE
Meteor 1-4 Rocket 3.9 11:43:45 17° W 11:44:33 18° WNW 11:47:00 10° NNW
X-37B 3.0 11:43:51 10° NNW 11:46:07 18° NNE 11:48:23 10° ENE
Cosmos 2219 Rocket 4.4 11:41:38 10° SSE 11:46:20 28° ESE 11:51:03 10° NE
USA 32 4.3 11:46:10 10° NNW 11:51:09 45° W 11:56:07 10° SSW
Cosmos 1536 2.9 11:49:09 10° NNW 11:53:08 55° W 11:57:06 10° S
ADEOS 4.0 11:49:29 10° N 11:54:22 41° WNW 11:59:13 10° SW
Cosmos 2333 Rocket 3.9 11:49:25 10° S 11:54:39 37° ESE 11:59:54 10° NE
Cosmos 1484 Rocket 3.3 11:51:58 10° N 11:55:43 40° WNW 11:59:28 10° SW
